NE1NH Weather Reports


time (UTC)temp
F
wind
direction
speed
knots
gust
knots
rain 1hr
in
rain 24hr
in
rain mn
in
humidity
%
barometer
mb
20260507105511 0 0.0 0.0 0.00 0.14 0.02 1008.3
20260507105011 0 0.0 0.0 0.00 0.14 0.02 1008.2
20260507104539 0 0.0 0.0 0.00 0.14 0.02 1008.1
20260507104010 0 0.0 0.0 0.00 0.14 0.02 1007.8
20260507103514 0 0.0 0.0 0.00 0.14 0.02 1008.0
20260507103027 0 0.0 0.0 0.00 0.14 0.02 1008.1
20260507102510 0 0.0 0.0 0.00 0.14 0.02 1008.2
20260507102011 0 0.0 0.0 0.00 0.14 0.02 1008.3
20260507101528 0 0.0 0.0 0.00 0.14 0.02 1008.3
20260507101010 0 0.0 0.0 0.00 0.14 0.02 1008.2
20260507100511 0 0.0 0.0 0.00 0.14 0.02 1008.0
20260507100026 0 0.0 0.0 0.00 0.14 0.02 1007.9
20260507095511 0 0.0 0.0 0.00 0.14 0.02 1007.8
20260507095009 0 0.0 0.0 0.00 0.14 0.02 1007.9
20260507094523 0 0.0 0.0 0.00 0.14 0.02 1007.7
20260507094011 0 0.0 0.0 0.00 0.14 0.02 1007.8
20260507093510 0 0.0 0.0 0.00 0.14 0.02 1007.6
20260507093034 0 0.0 0.0 0.00 0.14 0.02 1007.6
20260507092515 0 0.0 0.0 0.00 0.14 0.02 1007.5
20260507092010 0 0.0 0.0 0.00 0.14 0.02 1007.5
20260507091536 0 0.0 0.0 0.00 0.14 0.02 1007.6
20260507091009 0 0.0 0.0 0.00 0.14 0.02 1007.5
20260507090512 0 0.0 0.0 0.00 0.14 0.02 1007.6
20260507090022 0 0.0 0.0 0.01 0.14 0.02 1007.5
20260507085510 0 0.0 0.0 0.01 0.14 0.02 1007.6
20260507085010 0 0.0 0.0 0.01 0.14 0.02 1007.8
20260507084541 0 0.0 0.0 0.01 0.14 0.02 1008.1
20260507084011 0 0.0 0.0 0.01 0.14 0.02 1008.0
20260507083510 0 0.0 0.0 0.01 0.14 0.02 1008.1
20260507083030 0 0.0 0.0 0.01 0.14 0.02 1008.0
20260507082510 0 0.0 0.0 0.02 0.14 0.02 1007.9
20260507082013 0 0.0 0.0 0.02 0.14 0.02 1008.1
20260507081536 0 0.0 0.0 0.02 0.14 0.02 1008.0
20260507081011 49 0.0 0.0 0.02 0.14 0.02 85 1008.1
20260507080513 49 286 0.0 1.7 0.02 0.14 0.02 85 1007.9
20260507080028 50 269 0.0 1.7 0.01 0.13 0.01 85 1007.7
20260507075509 50 269 0.0 1.7 0.01 0.13 0.01 85 1007.5
20260507075009 50 269 0.0 1.7 0.01 0.13 0.01 84 1008.0
20260507074526 50 269 0.0 1.7 0.01 0.13 0.01 84 1008.1
20260507074009 50 292 0.9 3.5 0.01 0.13 0.01 83 1007.7
20260507073512 50 311 0.9 5.2 0.01 0.13 0.01 82 1007.8
20260507073016 51 302 0.9 7.0 0.01 0.13 0.01 81 1007.9
20260507072506 51 293 1.7 7.0 0.00 0.12 0.00 80 1007.7
20260507072007 51 317 1.7 6.1 0.00 0.12 0.00 80 1007.6
20260507071521 51 282 1.7 5.2 0.00 0.12 0.00 79 1007.7
20260507071009 51 289 2.6 5.2 0.00 0.12 0.00 79 1007.6
20260507070509 51 291 1.7 2.6 0.00 0.12 0.00 79 1007.4
20260507070026 51 306 1.7 2.6 0.00 0.12 0.00 79 1007.2
20260507065506 52 318 1.7 2.6 0.00 0.12 0.00 79 1007.0
20260507065012 52 282 0.0 2.6 0.00 0.12 0.00 79 1007.0
20260507064528 52 312 0.9 3.5 0.00 0.12 0.00 79 1007.1
20260507064011 52 293 0.9 3.5 0.00 0.12 0.00 79 1007.2
20260507063514 52 280 0.9 6.1 0.00 0.12 0.00 78 1007.1
20260507063028 52 295 1.7 6.1 0.00 0.12 0.00 79 1007.1
20260507062511 52 276 2.6 6.1 0.00 0.12 0.00 79 1007.2
20260507062007 52 279 1.7 5.2 0.00 0.12 0.00 79 1007.3
20260507061518 52 286 1.7 6.1 0.00 0.12 0.00 79 1007.5
20260507061006 53 294 2.6 6.1 0.00 0.12 0.00 80 1007.4
20260507060507 53 260 1.7 4.3 0.00 0.12 0.00 79 1007.4
20260507055507 53 284 0.9 7.8 0.00 0.12 0.00 79 1007.2
20260507055018 53 333 2.6 7.0 0.00 0.12 0.00 81 1007.2
20260507054524 53 317 1.7 6.1 0.00 0.12 0.00 84 1007.4
20260507054007 54 306 1.7 4.3 0.00 0.12 0.00 86 1007.6
20260507053511 54 306 1.7 4.3 0.00 0.12 0.00 86 1007.4
20260507053012 54 304 1.7 6.1 0.00 0.12 0.00 87 1007.4
20260507052504 54 283 2.6 7.8 0.00 0.12 0.00 87 1007.5
20260507052007 54 301 2.6 7.8 0.00 0.12 0.00 87 1007.6
20260507051516 55 267 3.5 7.0 0.00 0.12 0.00 87 1007.8
20260507051007 55 265 1.7 6.1 0.00 0.12 0.00 87 1007.7
20260507050508 55 289 0.9 7.8 0.00 0.12 0.00 87 1007.4
20260507050026 55 266 1.7 6.1 0.00 0.12 0.00 87 1007.3
20260507045508 55 308 1.7 4.3 0.00 0.12 0.00 87 1007.3
20260507045007 55 285 0.9 6.1 0.00 0.12 0.00 87 1007.2
20260507044525 55 308 1.7 7.8 0.00 0.12 0.00 87 1007.1
20260507044008 56 281 2.6 7.8 0.00 0.12 0.00 88 1007.2
20260507043508 56 272 1.7 5.2 0.00 0.12 0.00 88 1007.2
20260507043027 56 279 2.6 5.2 0.00 0.12 0.00 89 1007.3
20260507042512 56 268 1.7 5.2 0.00 0.12 0.00 90 1007.4
20260507042010 56 294 1.7 6.1 0.00 0.12 0.00 90 1007.5
20260507041512 57 300 1.7 7.0 0.00 0.12 0.00 91 1007.3
20260507041006 57 283 1.7 7.0 0.00 0.12 0.00 91 1007.2
20260507040506 57 297 1.7 4.3 0.00 0.12 0.00 92 1007.2
20260507040018 57 234 0.9 5.2 0.00 0.12 0.00 92 1007.3
20260507035508 57 275 1.7 5.2 0.00 0.12 0.12 92 1007.3
20260507035008 57 268 1.7 5.2 0.00 0.12 0.12 92 1007.4
20260507034526 57 268 2.6 5.2 0.00 0.12 0.12 93 1007.3
20260507034012 57 243 2.6 5.2 0.00 0.12 0.12 93 1007.4
20260507033507 57 235 1.7 4.3 0.00 0.12 0.12 93 1007.4
20260507033026 57 248 2.6 6.1 0.00 0.12 0.12 94 1007.3
20260507032512 58 229 2.6 6.1 0.00 0.12 0.12 94 1007.2
20260507032011 58 234 1.7 4.3 0.00 0.12 0.12 94 1007.0
20260507031527 58 258 0.9 4.3 0.00 0.12 0.12 94 1006.9
20260507031009 58 223 2.6 4.3 0.00 0.12 0.12 94 1007.0
20260507030509 58 253 1.7 7.0 0.00 0.12 0.12 94 1007.0
20260507030016 58 241 1.7 7.0 0.00 0.12 0.12 94 1006.9
20260507025505 57 243 2.6 7.0 0.00 0.12 0.12 94 1006.7
20260507025004 57 217 1.7 8.7 0.00 0.12 0.12 94 1006.6
20260507024519 57 248 1.7 8.7 0.00 0.12 0.12 94 1006.7
20260507024008 57 205 3.5 6.1 0.00 0.12 0.12 94 1006.6
20260507023506 57 246 0.9 6.1 0.00 0.12 0.12 94 1006.6
20260507023022 57 209 2.6 6.1 0.00 0.12 0.12 94 1006.5
20260507022510 57 246 1.7 6.1 0.00 0.12 0.12 94 1006.4
20260507022010 57 219 1.7 4.3 0.00 0.12 0.12 94 1006.4
20260507021529 57 254 1.7 5.2 0.00 0.12 0.12 94 1006.5
20260507021011 57 234 0.9 5.2 0.00 0.12 0.12 94 1006.5
20260507020508 57 252 1.7 3.5 0.00 0.12 0.12 94 1006.6
20260507020043 57 309 0.9 2.6 0.00 0.12 0.12 94 1006.6
20260507015510 57 227 0.0 2.6 0.00 0.12 0.12 94 1006.6
20260507015008 57 303 0.0 7.0 0.00 0.12 0.12 94 1006.6
20260507014517 57 234 0.9 7.0 0.00 0.12 0.12 94 1006.7
20260507014007 57 218 0.0 3.5 0.00 0.12 0.12 94 1006.6
20260507013507 57 226 0.9 4.3 0.00 0.12 0.12 94 1006.6
20260507013025 57 279 1.7 4.3 0.00 0.12 0.12 94 1006.4
20260507012507 57 240 0.9 3.5 0.00 0.12 0.12 94 1006.3
20260507012008 57 214 0.0 4.3 0.00 0.12 0.12 94 1006.3
20260507011537 57 254 0.9 4.3 0.00 0.12 0.12 94 1006.4
20260507011006 57 254 0.0 4.3 0.00 0.12 0.12 94 1006.6
20260507010510 57 217 1.7 3.5 0.00 0.12 0.12 94 1006.8
20260507010033 57 175 1.7 5.2 0.00 0.12 0.12 94 1006.7
20260507005509 57 196 2.6 5.2 0.00 0.12 0.12 94 1006.7
20260507005013 57 183 0.9 3.5 0.00 0.12 0.12 94 1006.9
20260507004527 57 299 0.9 4.3 0.00 0.12 0.12 94 1006.8
20260507004006 57 223 1.7 7.0 0.00 0.12 0.12 94 1006.8
20260507003508 57 138 2.6 7.0 0.00 0.12 0.12 94 1006.7
20260507003021 57 225 0.9 4.3 0.00 0.12 0.12 94 1006.8
20260507002509 57 211 1.7 4.3 0.00 0.12 0.12 94 1006.8
20260507002011 57 140 0.9 4.3 0.00 0.12 0.12 94 1006.9
20260507001553 57 238 0.9 6.1 0.00 0.12 0.12 94 1006.9
20260507001009 57 228 1.7 6.1 0.01 0.12 0.12 93 1006.9
20260507000511 57 155 1.7 6.1 0.02 0.12 0.12 93 1006.8
20260507000026 57 174 0.9 6.1 0.02 0.12 0.12 93 1006.7
20260506235511 57 215 0.0 3.5 0.02 0.12 0.12 93 1006.7
20260506235014 57 196 1.7 3.5 0.02 0.12 0.12 93 1006.7
20260506234528 57 277 0.0 3.5 0.03 0.12 0.12 93 1006.7
20260506234012 57 292 0.9 3.5 0.03 0.12 0.12 93 1006.6
20260506233509 57 86 0.0 4.3 0.03 0.12 0.12 93 1006.5
20260506233027 57 264 1.7 4.3 0.03 0.12 0.12 93 1006.4
20260506232508 57 289 0.9 4.3 0.03 0.12 0.12 93 1006.4
20260506232005 57 197 0.9 4.3 0.03 0.12 0.12 93 1006.4
20260506231523 57 193 0.0 3.5 0.03 0.12 0.12 93 1006.3
20260506231008 57 202 1.7 3.5 0.02 0.11 0.11 93 1006.3
20260506230515 57 178 0.9 6.1 0.02 0.10 0.10 93 1006.3
20260506230048 57 182 1.7 6.1 0.02 0.10 0.10 93 1006.3
20260506225509 57 171 1.7 4.3 0.02 0.10 0.10 93 1006.4
20260506225011 57 242 0.9 3.5 0.02 0.10 0.10 93 1006.4
20260506224526 57 175 0.9 3.5 0.01 0.09 0.09 93 1006.4
20260506224009 58 224 0.9 5.2 0.01 0.09 0.09 93 1006.4
20260506223507 58 192 0.9 5.2 0.01 0.09 0.09 93 1006.4
20260506223031 58 224 0.9 3.5 0.02 0.09 0.09 93 1006.4
20260506222513 58 238 1.7 3.5 0.02 0.09 0.09 93 1006.5
20260506222015 58 182 0.9 5.2 0.02 0.09 0.09 93 1006.6
20260506221522 58 76 0.9 5.2 0.02 0.09 0.09 92 1006.5
20260506221010 58 267 0.9 7.0 0.02 0.09 0.09 92 1006.5
20260506220507 58 137 1.7 7.0 0.01 0.08 0.08 92 1006.6
20260506220033 58 165 1.7 6.1 0.01 0.08 0.08 92 1006.7
20260506215510 58 131 0.9 5.2 0.01 0.08 0.08 92 1006.8
20260506215009 58 187 0.9 4.3 0.01 0.08 0.08 92 1006.7
20260506214525 58 168 0.9 8.7 0.02 0.08 0.08 92 1006.7
20260506214009 58 182 1.7 8.7 0.02 0.08 0.08 92 1006.7
20260506213515 58 318 0.0 3.5 0.02 0.08 0.08 92 1006.7
20260506213028 58 238 0.9 5.2 0.01 0.07 0.07 92 1006.8
20260506212510 58 103 1.7 5.2 0.01 0.07 0.07 92 1006.9
20260506212016 58 180 1.7 6.1 0.01 0.07 0.07 92 1007.0
20260506211528 58 350 0.9 7.8 0.01 0.07 0.07 92 1007.0
20260506211010 58 188 2.6 7.8 0.01 0.07 0.07 92 1007.1
20260506210515 59 194 0.9 5.2 0.01 0.07 0.07 92 1007.1
20260506210044 58 193 0.9 6.1 0.01 0.07 0.07 92 1007.1
20260506205509 58 158 0.9 6.1 0.01 0.07 0.07 91 1007.1
20260506205003 58 219 0.9 6.1 0.01 0.07 0.07 91 1007.2
20260506204505 58 141 1.7 6.1 0.00 0.06 0.06 91 1007.3
20260506204004 58 273 1.7 6.1 0.00 0.06 0.06 91 1007.3
20260506203503 58 323 0.9 6.1 0.00 0.06 0.06 91 1007.3
20260506203011 58 165 1.7 6.1 0.00 0.06 0.06 91 1007.3
20260506202503 58 179 0.9 7.8 0.00 0.06 0.06 91 1007.3
20260506202007 58 188 1.7 7.8 0.01 0.06 0.06 91 1007.3
20260506201519 58 225 2.6 7.8 0.02 0.06 0.06 91 1007.5
20260506201004 58 126 0.9 6.1 0.02 0.06 0.06 91 1007.4
20260506200504 58 161 1.7 5.2 0.03 0.06 0.06 91 1007.5
20260506200012 58 223 0.9 4.3 0.03 0.06 0.06 91 1007.6
20260506195504 58 54 0.9 5.2 0.04 0.06 0.06 91 1007.6
20260506195005 58 188 1.7 3.5 0.04 0.06 0.06 91 1007.6
20260506194511 58 100 0.9 3.5 0.05 0.06 0.06 90 1007.6
20260506194007 59 182 1.7 5.2 0.05 0.06 0.06 90 1007.6
20260506193504 59 218 0.9 5.2 0.06 0.06 0.06 90 1007.7
20260506193021 59 174 1.7 4.3 0.06 0.06 0.06 90 1007.7
20260506192503 59 207 1.7 5.2 0.06 0.06 0.06 90 1007.7
20260506192006 59 231 1.7 5.2 0.05 0.05 0.05 89 1007.7
20260506191512 59 263 0.9 5.2 0.04 0.04 0.04 90 1007.6
20260506191004 59 119 0.0 3.5 0.04 0.04 0.04 89 1007.7
20260506190509 60 189 0.9 3.5 0.03 0.03 0.03 88 1007.7
20260506190014 60 187 0.9 4.3 0.03 0.03 0.03 88 1007.8
20260506185505 60 165 0.9 4.3 0.02 0.02 0.02 87 1007.9
20260506185004 61 175 0.9 6.1 0.02 0.02 0.02 86 1007.8
20260506184511 61 300 1.7 6.1 0.01 0.01 0.01 85 1007.8
20260506184005 62 152 0.0 3.5 0.01 0.01 0.01 85 1007.9
20260506183507 62 171 0.0 3.5 0.00 0.00 0.00 84 1008.0
20260506183011 62 179 0.9 3.5 0.00 0.00 0.00 82 1008.1
20260506182508 63 142 0.9 4.3 0.00 0.00 0.00 81 1008.1
20260506182005 63 248 1.7 7.0 0.00 0.00 0.00 79 1008.2
20260506181512 64 210 1.7 7.0 0.00 0.00 0.00 78 1008.3
20260506181004 64 256 0.9 9.6 0.00 0.00 0.00 78 1008.3
20260506180504 64 190 0.9 9.6 0.00 0.00 0.00 77 1008.3
20260506180014 65 277 1.7 7.0 0.00 0.00 0.00 74 1008.4
20260506175505 65 192 1.7 7.0 0.00 0.00 0.00 72 1008.4
20260506175005 66 209 3.5 6.1 0.00 0.00 0.00 70 1008.4
20260506174514 67 197 2.6 7.0 0.00 0.00 0.00 68 1008.5
20260506174002 68 220 2.6 9.6 0.00 0.00 0.00 64 1008.5
20260506173504 68 250 3.5 9.6 0.00 0.00 0.00 62 1008.4
20260506173008 69 203 2.6 7.0 0.00 0.00 0.00 60 1008.3
20260506172502 70 204 2.6 9.6 0.00 0.00 0.00 59 1008.4
20260506172005 70 209 1.7 9.6 0.00 0.00 0.00 60 1008.4
20260506171510 70 232 2.6 12.2 0.00 0.00 0.00 59 1008.3
20260506171008 70 325 1.7 12.2 0.00 0.00 0.00 58 1008.2
20260506170505 71 279 2.6 8.7 0.00 0.00 0.00 58 1008.2
20260506170025 71 262 1.7 8.7 0.00 0.00 0.00 57 1008.3
20260506165505 72 153 1.7 7.0 0.00 0.00 0.00 57 1008.3
20260506165007 72 106 1.7 7.0 0.00 0.00 0.00 56 1008.3
20260506164535 73 225 1.7 10.4 0.00 0.00 0.00 54 1008.4
20260506164005 73 239 4.3 10.4 0.00 0.00 0.00 55 1008.5
20260506163504 72 123 1.7 10.4 0.00 0.00 0.00 59 1008.5
20260506163019 71 211 2.6 10.4 0.00 0.00 0.00 59 1008.7
20260506162508 70 156 1.7 7.8 0.00 0.00 0.00 58 1008.7
20260506162001 70 173 1.7 7.8 0.00 0.00 0.00 58 1008.8
20260506161511 71 269 2.6 7.0 0.00 0.00 0.00 58 1008.8
20260506161005 70 213 2.6 7.8 0.00 0.00 0.00 58 1009.0
20260506160506 70 213 3.5 10.4 0.00 0.00 0.00 58 1009.1
20260506160013 70 294 3.5 10.4 0.00 0.00 0.00 58 1008.9
20260506155504 70 217 3.5 9.6 0.00 0.00 0.00 58 1009.1
20260506155007 70 304 1.7 8.7 0.00 0.00 0.00 60 1009.1
20260506154521 70 187 3.5 7.0 0.00 0.00 0.00 58 1009.2
20260506154008 70 182 0.9 7.8 0.00 0.00 0.00 60 1009.3
20260506153507 70 304 1.7 10.4 0.00 0.00 0.00 60 1009.4
20260506153020 69 140 2.6 10.4 0.00 0.00 0.00 61 1009.4
20260506152505 69 95 1.7 7.8 0.00 0.00 0.00 63 1009.5
20260506152009 69 192 2.6 7.0 0.00 0.00 0.00 62 1009.7
20260506151508 69 231 3.5 7.0 0.00 0.00 0.00 61 1009.7
20260506151001 69 182 1.7 5.2 0.00 0.00 0.00 62 1009.8
20260506150504 70 214 1.7 7.8 0.00 0.00 0.00 62 1009.8
20260506150012 69 210 3.5 7.8 0.00 0.00 0.00 63 1009.8
20260506145505 68 259 2.6 7.0 0.00 0.00 0.00 64 1009.9
20260506145008 68 247 0.9 7.0 0.00 0.00 0.00 65 1010.0
20260506144523 68 249 2.6 6.1 0.00 0.00 0.00 65 1009.9
20260506144008 68 218 0.9 6.1 0.00 0.00 0.00 65 1009.8
20260506143506 68 205 0.9 7.0 0.00 0.00 0.00 66 1010.0
20260506143024 67 98 2.6 7.0 0.00 0.00 0.00 65 1009.9
20260506142510 67 182 1.7 7.8 0.00 0.00 0.00 66 1009.9
20260506142009 67 248 2.6 7.8 0.00 0.00 0.00 67 1009.9
20260506141528 67 146 0.9 6.1 0.00 0.00 0.00 67 1009.8
20260506141011 67 81 1.7 6.1 0.00 0.00 0.00 66 1009.8
20260506140505 67 128 1.7 6.1 0.00 0.00 0.00 67 1009.8
20260506140011 67 138 0.9 3.5 0.00 0.00 0.00 67 1009.7
20260506135506 67 286 0.9 3.5 0.00 0.00 0.00 68 1009.7
20260506135003 67 198 0.9 3.5 0.00 0.00 0.00 70 1009.7
20260506134516 66 275 1.7 6.1 0.00 0.00 0.00 70 1009.8
20260506134006 65 198 1.7 6.1 0.00 0.00 0.00 73 1009.8
20260506133508 65 217 1.7 7.0 0.00 0.00 0.00 73 1009.8
20260506133019 64 137 2.6 7.0 0.00 0.00 0.00 74 1009.8
20260506132510 64 318 0.9 4.3 0.00 0.00 0.00 75 1009.9
20260506132007 63 243 1.7 5.2 0.00 0.00 0.00 75 1010.2
20260506131520 63 190 0.9 5.2 0.00 0.00 0.00 76 1010.3
20260506131006 62 301 0.9 6.1 0.00 0.00 0.00 77 1010.3
20260506130508 62 175 2.6 6.1 0.00 0.00 0.00 77 1010.4
20260506130024 62 267 1.7 6.1 0.00 0.00 0.00 77 1010.4
20260506125509 62 270 0.9 6.1 0.00 0.00 0.00 78 1010.4
20260506125002 62 189 2.6 6.1 0.00 0.00 0.00 77 1010.3
20260506124511 62 198 2.6 7.0 0.00 0.00 0.00 77 1010.2
20260506124006 62 163 0.9 7.0 0.00 0.00 0.00 77 1010.2
20260506123506 62 257 2.6 6.1 0.00 0.00 0.00 76 1010.3
20260506123020 62 205 1.7 3.5 0.00 0.00 0.00 78 1010.3
20260506122506 61 298 0.9 5.2 0.00 0.00 0.00 79 1010.3
20260506122012 61 241 1.7 5.2 0.00 0.00 0.00 79 1010.3
20260506121524 61 254 1.7 5.2 0.00 0.00 0.00 79 1010.6
20260506121009 61 183 1.7 5.2 0.00 0.00 0.00 79 1010.4
20260506120507 61 64 1.7 5.2 0.00 0.00 0.00 80 1010.3
20260506120043 60 291 2.6 5.2 0.00 0.00 0.00 80 1010.3
20260506115512 60 190 1.7 8.7 0.00 0.00 0.00 81 1010.2
20260506115007 60 162 2.6 8.7 0.00 0.00 0.00 81 1010.3
20260506114522 59 197 2.6 8.7 0.00 0.00 0.00 82 1010.3
20260506114005 59 251 1.7 6.1 0.00 0.00 0.00 82 1010.5
20260506113510 59 202 0.9 5.2 0.00 0.00 0.00 83 1010.6
20260506113016 58 276 1.7 6.1 0.00 0.00 0.00 82 1010.6
20260506112507 59 273 0.9 6.1 0.00 0.00 0.00 82 1010.5
20260506112007 59 265 2.6 5.2 0.00 0.00 0.00 82 1010.5
20260506111519 58 186 1.7 0.0 0.00 0.00 0.00 83 1011.0
20260506111007 0 0.0 0.0 0.00 0.00 0.00 1010.8
20260506110507 0 0.0 0.0 0.00 0.00 0.00 1010.7
20260506110025 0 0.0 0.0 0.00 0.00 0.00 1010.6